This is the latest recevied weather packets stored in our database for station/object IA5FYI-13. If no packets are shown the sender has not sent any weather packets the latest 1 day(s).
| Time | Temp. | Humidity | Pressure | Rain* | Wind** | Luminosity | Snow |
|---|---|---|---|---|---|---|---|
| 1777966812 | 17.78° C | 91% | 1010.8 hPa | 1.52 mm | 5.36 m/s, 157° | - | - |
| 1777966509 | 17.78° C | 91% | 1010.8 hPa | 1.52 mm | 3.58 m/s, 149° | - | - |
| 1777966224 | 17.78° C | 92% | 1010.8 hPa | 0.25 mm | 4.02 m/s, 163° | - | - |
| 1777965909 | 17.78° C | 93% | 1010.8 hPa | 0.25 mm | 2.68 m/s, 173° | - | - |
| 1777965612 | 17.78° C | 93% | 1011.2 hPa | 0.25 mm | 4.92 m/s, 163° | - | - |
| 1777965312 | 17.78° C | 93% | 1011.2 hPa | 0.25 mm | 4.92 m/s, 285° | - | - |
| 1777965013 | 17.78° C | 93% | 1010.8 hPa | 0.25 mm | 4.92 m/s, 174° | - | - |
| 1777964709 | 17.78° C | 93% | 1010.8 hPa | 0 mm | 4.02 m/s, 172° | - | - |
| 1777964433 | 17.78° C | 93% | 1011.2 hPa | 2.54 mm | 5.36 m/s, 141° | - | - |
| 1777964109 | 17.78° C | 93% | 1011.2 hPa | 2.54 mm | 2.68 m/s, 195° | - | - |
| 1777963813 | 17.78° C | 93% | 1010.5 hPa | 2.54 mm | 6.71 m/s, 154° | - | - |
| 1777963513 | 17.78° C | 93% | 1011.2 hPa | 2.54 mm | 8.49 m/s, 138° | - | - |
| 1777963213 | 17.78° C | 94% | 1010.8 hPa | 2.03 mm | 7.6 m/s, 124° | - | - |
| 1777962910 | 17.78° C | 94% | 1010.5 hPa | 2.03 mm | 4.47 m/s, 171° | - | - |
| 1777962623 | 17.78° C | 94% | 1010.8 hPa | 2.03 mm | 5.81 m/s, 135° | - | - |
| 1777962309 | 17.78° C | 94% | 1010.5 hPa | 2.03 mm | 5.81 m/s, 186° | - | - |
| 1777962013 | 17.78° C | 94% | 1010.8 hPa | 0.76 mm | 8.49 m/s, 148° | - | - |
| 1777961712 | 17.78° C | 94% | 1010.8 hPa | 0.76 mm | 9.39 m/s, 162° | - | - |
| 1777961412 | 17.78° C | 94% | 1011.2 hPa | 0.51 mm | 6.26 m/s, 177° | - | - |
| 1777961109 | 17.78° C | 94% | 1010.8 hPa | 0 mm | 4.92 m/s, 198° | - | - |
| 1777960832 | 17.78° C | 94% | 1011.2 hPa | 2.54 mm | 6.26 m/s, 187° | - | - |
| 1777960508 | 17.78° C | 94% | 1010.8 hPa | 2.54 mm | 7.15 m/s, 145° | - | - |
| 1777960212 | 17.78° C | 94% | 1010.8 hPa | 2.54 mm | 7.15 m/s, 128° | - | - |
| 1777959912 | 17.78° C | 94% | 1011.2 hPa | 2.54 mm | 5.36 m/s, 155° | - | - |
| 1777959613 | 17.78° C | 94% | 1010.8 hPa | 1.27 mm | 1.79 m/s, 172° | - | - |
* Rain latest hour (hover to see other rain measurements)
** Current wind speed in m/s (hover to see current wind gust speed)